TimeEST,TemperatureF,Dew PointF,Humidity,Sea Level PressureIn,VisibilityMPH,Wind Direction,Wind SpeedMPH,Gust SpeedMPH,PrecipitationIn,Events,Conditions,WindDirDegrees,DateUTC
12:53 AM,73.0,66.0,79,30.10,9.0,SSE,12.7,-,N/A,,Clear,150,2007-01-01 05:53:00
1:53 AM,73.0,66.0,79,30.09,10.0,SSE,11.5,-,N/A,,Clear,150,2007-01-01 06:53:00
2:53 AM,73.0,66.0,79,30.09,10.0,SSE,9.2,-,N/A,,Partly Cloudy,160,2007-01-01 07:53:00
3:53 AM,73.0,66.0,79,30.09,10.0,SSE,10.4,-,N/A,,Scattered Clouds,150,2007-01-01 08:53:00
4:53 AM,72.0,66.0,81,30.09,10.0,SSE,8.1,-,N/A,,Scattered Clouds,150,2007-01-01 09:53:00
5:40 AM,71.6,66.2,83,30.11,10.0,North,5.8,-,0.01,Rain,Light Rain,350,2007-01-01 10:40:00
5:53 AM,72.0,66.9,84,30.11,10.0,Calm,Calm,-,0.01,Rain,Light Rain,0,2007-01-01 10:53:00
6:53 AM,72.0,66.9,84,30.13,7.0,Calm,Calm,-,0.03,Rain,Light Rain,0,2007-01-01 11:53:00
7:18 AM,71.6,69.8,94,30.14,3.0,Calm,Calm,-,0.09,Rain,Heavy Rain,0,2007-01-01 12:18:00
7:53 AM,72.0,69.1,91,30.14,6.0,East,3.5,-,0.12,Rain,Light Rain,80,2007-01-01 12:53:00
8:25 AM,71.6,69.8,94,30.13,5.0,East,4.6,-,0.03,Rain,Light Rain,90,2007-01-01 13:25:00
8:53 AM,71.1,69.1,93,30.13,6.0,ESE,5.8,-,0.03,Rain,Light Rain,120,2007-01-01 13:53:00
9:53 AM,72.0,68.0,87,30.14,7.0,SSE,9.2,-,0.01,Rain,Light Rain,150,2007-01-01 14:53:00
10:53 AM,73.0,69.1,87,30.12,6.0,SSE,10.4,-,0.01,Rain,Light Rain,160,2007-01-01 15:53:00
11:53 AM,75.0,69.1,82,30.10,10.0,South,18.4,-,0.00,,Overcast,190,2007-01-01 16:53:00
12:53 PM,75.0,69.1,82,30.08,10.0,South,12.7,-,0.00,,Clear,190,2007-01-01 17:53:00
1:53 PM,73.9,68.0,82,30.09,10.0,SSW,12.7,-,0.01,Rain,Light Rain,200,2007-01-01 18:53:00
2:24 PM,71.6,69.8,94,30.10,6.0,SSW,16.1,-,0.02,Rain,Light Rain,210,2007-01-01 19:24:00
2:53 PM,72.0,69.1,91,30.10,4.0,SSW,18.4,-,0.07,Rain,Rain,200,2007-01-01 19:53:00
3:05 PM,71.6,69.8,94,30.10,5.0,SSW,12.7,-,0.01,Rain,Light Rain,200,2007-01-01 20:05:00
3:25 PM,73.4,69.8,88,30.09,6.0,South,13.8,-,0.02,Rain,Light Rain,190,2007-01-01 20:25:00
3:53 PM,73.0,69.1,87,30.10,6.0,SSW,15.0,-,0.04,Rain,Light Rain,210,2007-01-01 20:53:00
4:04 PM,73.4,69.8,88,30.09,7.0,South,13.8,-,0.01,Rain,Light Rain,190,2007-01-01 21:04:00
4:36 PM,73.4,71.6,94,30.09,8.0,SSW,16.1,21.9,0.03,Rain,Light Rain,200,2007-01-01 21:36:00
4:44 PM,73.4,-9999,N/A,30.09,8.0,SSW,12.7,-,0.03,Rain,Light Rain,210,2007-01-01 21:44:00
4:53 PM,72.0,-9999,N/A,30.08,8.0,SSW,17.3,-,0.04,Rain,Light Rain,200,2007-01-01 21:53:00
5:11 PM,71.6,-9999,N/A,30.09,10.0,SSW,13.8,-,0.01,Rain,Light Rain,200,2007-01-01 22:11:00
5:34 PM,71.6,68.0,88,30.10,8.0,SSW,15.0,-,0.04,Rain,Light Rain,210,2007-01-01 22:34:00
5:53 PM,71.1,68.0,90,30.09,7.0,South,13.8,-,0.07,Rain,Light Rain,190,2007-01-01 22:53:00
6:11 PM,69.8,-9999,N/A,30.06,8.0,SSE,13.8,-,0.02,Rain,Light Rain,160,2007-01-01 23:11:00
6:53 PM,69.1,-9999,N/A,30.08,10.0,South,9.2,-,0.02,,Scattered Clouds,170,2007-01-01 23:53:00
7:53 PM,69.1,64.4,85,30.14,10.0,North,6.9,-,N/A,,Clear,350,2007-01-02 00:53:00
8:53 PM,69.1,64.4,85,30.14,10.0,NNW,3.5,-,N/A,,Clear,330,2007-01-02 01:53:00
9:53 PM,66.9,64.9,93,30.16,10.0,North,9.2,-,N/A,,Partly Cloudy,350,2007-01-02 02:53:00
10:09 PM,66.2,64.4,94,30.16,9.0,North,6.9,-,N/A,,Mostly Cloudy,350,2007-01-02 03:09:00
10:20 PM,66.2,64.4,94,30.16,9.0,NNW,9.2,-,N/A,,Overcast,340,2007-01-02 03:20:00
10:44 PM,66.2,64.4,94,30.16,10.0,North,4.6,-,N/A,,Scattered Clouds,350,2007-01-02 03:44:00
10:53 PM,66.0,64.0,93,30.16,10.0,North,4.6,-,N/A,,Partly Cloudy,350,2007-01-02 03:53:00
11:53 PM,64.9,61.0,87,30.16,10.0,NNW,5.8,-,N/A,,Clear,340,2007-01-02 04:53:00